CDT,Max TemperatureF,Mean TemperatureF,Min TemperatureF,Max Dew PointF,MeanDew PointF,Min DewpointF,Max Humidity, Mean Humidity, Min Humidity, Max Sea Level PressureIn, Mean Sea Level PressureIn, Min Sea Level PressureIn, Max VisibilityMiles, Mean VisibilityMiles, Min VisibilityMiles, Max Wind SpeedMPH, Mean Wind SpeedMPH, Max Gust SpeedMPH,PrecipitationIn, CloudCover, Events, WindDirDegrees
2012-7-1,91,77,63,74,69,61,94,74,46,29.97,29.92,29.89,10,9,0,13,3,18,0.00,,Fog,161
2012-7-2,92,82,72,76,70,67,91,70,43,29.96,29.93,29.88,10,10,7,13,6,18,0.00,,,186
2012-7-3,93,82,70,74,70,67,88,69,49,29.92,29.85,29.79,10,10,10,16,7,21,0.00,,,191
2012-7-4,94,82,71,74,69,66,86,64,43,29.89,29.86,29.83,10,10,10,13,7,18,0.00,,,189
2012-7-5,92,83,74,78,71,65,87,65,47,29.97,29.94,29.88,10,10,3,18,6,29,0.15,,Rain,208
2012-7-6,95,84,72,77,72,69,92,68,47,30.01,29.97,29.94,10,10,7,10,5,,0.00,,,191
2012-7-7,86,78,71,72,69,63,88,73,57,30.10,30.04,29.96,10,10,10,14,6,17,0.00,,,13
2012-7-8,84,74,64,62,60,56,84,60,42,30.18,30.14,30.10,10,10,10,9,7,16,0.00,,,30
2012-7-9,85,72,60,65,59,53,89,63,37,30.14,30.12,30.09,10,10,10,14,4,21,0.00,,,339
2012-7-10,83,70,56,60,56,52,85,62,36,30.17,30.14,30.11,10,10,10,12,4,18,0.00,,,29
2012-7-11,85,70,54,61,55,51,89,60,33,30.19,30.14,30.08,10,10,10,10,2,16,0.00,,,120
2012-7-12,88,74,59,68,60,55,84,62,40,30.09,30.05,30.01,10,10,10,13,5,17,0.00,,,138
2012-7-13,84,76,68,67,65,63,86,72,54,30.07,30.03,29.99,10,10,10,13,6,18,0.00,,Rain,152
2012-7-14,88,78,67,72,67,62,90,71,52,30.06,30.03,30.00,10,10,10,10,5,,0.00,,,208
2012-7-15,91,77,63,74,67,61,93,71,41,30.09,30.04,29.99,10,9,4,8,2,,0.00,,,121
2012-7-16,92,80,68,70,66,63,88,64,40,30.01,29.93,29.84,10,10,10,15,7,20,0.00,,,199
2012-7-17,94,82,69,73,67,65,86,61,38,29.88,29.86,29.82,10,10,10,10,6,17,0.00,,,202
2012-7-18,94,82,69,72,68,65,91,68,43,29.92,29.87,29.82,10,10,7,12,3,17,0.00,,,145
2012-7-19,86,76,65,68,65,63,94,72,48,30.09,30.01,29.92,10,9,0,12,5,18,0.00,,Fog,360
2012-7-20,84,71,59,66,62,57,94,71,44,30.17,30.12,30.08,10,9,2,9,2,,0.00,,,111
2012-7-21,86,75,64,69,65,61,91,73,46,30.16,30.08,30.02,10,10,10,10,5,,0.00,,,175
2012-7-22,97,82,68,71,66,62,90,59,31,30.11,29.99,29.94,10,10,10,17,7,22,0.01,,Rain,194
2012-7-23,98,86,74,76,67,60,87,55,30,30.02,29.97,29.93,10,10,10,9,6,,0.00,,,224
2012-7-24,92,82,73,72,68,63,90,67,42,30.03,29.94,29.85,10,10,10,20,6,24,0.00,,,105
2012-7-25,99,84,68,70,67,63,90,60,32,29.84,29.70,29.61,10,10,4,26,11,43,0.63,2,Rain,215
2012-7-26,88,78,68,70,63,51,93,66,30,29.89,29.80,29.66,10,10,4,13,8,20,0.00,1,,291
2012-7-27,80,70,61,62,60,57,90,72,46,30.11,30.00,29.89,10,10,10,14,7,24,0.00,3,,314
2012-7-28,66,62,58,64,61,56,94,91,88,30.20,30.13,30.03,10,9,4,10,2,,0.40,4,Rain,171
2012-7-29,81,72,63,69,66,62,94,83,66,30.07,30.00,29.96,10,9,4,12,5,,0.16,7,Rain,87
2012-7-30,91,77,64,74,68,62,95,75,46,29.99,29.95,29.92,10,8,0,8,3,,0.01,1,Fog,264
2012-7-31,86,76,66,68,63,60,88,66,43,30.04,29.99,29.95,10,10,10,7,3,,0.00,0,,7